• In Uzbekistan
  • List of Countries
  • For 7 days
  • Water Temperature
  • Satellite Maps
  • Weather Map
  • Weather Widgets
  • user-avatar
    Login

    Hourly Weather Luksor

    Today, 16 December, Saturday

    Time Temperature Precipitation Wind Pressure Humidity
    00:00 +16°C° 0 mm 1 mps 756 mmHg 55%
    01:00 +15°C° 0 mm 1 mps 756 mmHg 56%
    02:00 +15°C° 0 mm 1 mps 756 mmHg 58%
    03:00 +15°C° 0 mm 1 mps 756 mmHg 60%
    04:00 +14°C° 0 mm 1 mps 756 mmHg 62%
    05:00 +14°C° 0 mm 1 mps 757 mmHg 64%
    06:00 +15°C° 0 mm 1 mps 757 mmHg 59%
    07:00 +16°C° 0 mm 1 mps 757 mmHg 54%
    08:00 +19°C° 0 mm 1 mps 757 mmHg 47%
    09:00 +21°C° 0 mm 1 mps 757 mmHg 43%
    10:00 +21°C° 0 mm 2 mps 757 mmHg 39%
    11:00 +24°C° 0 mm 2 mps 756 mmHg 35%
    12:00 +25°C° 0 mm 2 mps 756 mmHg 32%
    13:00 +26°C° 0 mm 2 mps 756 mmHg 28%
    14:00 +27°C° 0 mm 2 mps 755 mmHg 25%
    15:00 +26°C° 0 mm 2 mps 755 mmHg 28%
    16:00 +25°C° 0 mm 2 mps 755 mmHg 31%
    17:00 +23°C° 0 mm 2 mps 755 mmHg 34%
    18:00 +23°C° 0 mm 2 mps 755 mmHg 40%
    19:00 +21°C° 0 mm 2 mps 756 mmHg 46%
    20:00 +20°C° 0 mm 3 mps 756 mmHg 52%
    21:00 +19°C° 0 mm 2 mps 756 mmHg 57%
    22:00 +18°C° 0 mm 2 mps 757 mmHg 63%
    23:00 +19°C° 0 mm 1 mps 757 mmHg 68%

    Tomorrow, 17 December, Sunday

    Time Temperature Precipitation Wind Pressure Humidity
    00:00 +18°C° 0 mm 1 mps 757 mmHg 71%
    01:00 +18°C° 0 mm 1 mps 757 mmHg 73%
    02:00 +16°C° 0 mm 1 mps 756 mmHg 75%
    03:00 +16°C° 0 mm 1 mps 756 mmHg 76%
    04:00 +15°C° 0 mm 1 mps 756 mmHg 77%
    05:00 +14°C° 0 mm 0 mps 756 mmHg 78%
    06:00 +16°C° 0 mm 1 mps 756 mmHg 71%
    07:00 +19°C° 0 mm 1 mps 756 mmHg 64%
    08:00 +20°C° 0 mm 1 mps 756 mmHg 56%
    09:00 +22°C° 0 mm 1 mps 756 mmHg 48%
    10:00 +24°C° 0 mm 1 mps 756 mmHg 40%
    11:00 +26°C° 0 mm 2 mps 756 mmHg 32%
    12:00 +27°C° 0 mm 2 mps 755 mmHg 28%
    13:00 +28°C° 0 mm 2 mps 755 mmHg 24%
    14:00 +29°C° 0 mm 2 mps 754 mmHg 20%
    15:00 +27°C° 0 mm 1 mps 754 mmHg 22%
    16:00 +26°C° 0 mm 1 mps 754 mmHg 23%
    17:00 +24°C° 0 mm 1 mps 754 mmHg 25%
    18:00 +24°C° 0 mm 1 mps 755 mmHg 27%
    19:00 +23°C° 0 mm 2 mps 755 mmHg 30%
    20:00 +21°C° 0 mm 2 mps 756 mmHg 32%
    21:00 +21°C° 0 mm 2 mps 756 mmHg 36%
    22:00 +21°C° 0 mm 1 mps 756 mmHg 39%
    23:00 +20°C° 0 mm 1 mps 756 mmHg 43%

    Day after tomorrow, 18 December, Monday

    Time Temperature Precipitation Wind Pressure Humidity
    00:00 +20°C° 0 mm 1 mps 756 mmHg 45%
    01:00 +19°C° 0 mm 1 mps 756 mmHg 48%
    02:00 +18°C° 0 mm 1 mps 756 mmHg 50%
    03:00 +18°C° 0 mm 1 mps 755 mmHg 51%
    04:00 +18°C° 0 mm 1 mps 755 mmHg 51%
    05:00 +16°C° 0 mm 1 mps 755 mmHg 52%
    06:00 +19°C° 0 mm 1 mps 755 mmHg 47%
    07:00 +20°C° 0 mm 1 mps 756 mmHg 41%
    08:00 +22°C° 0 mm 1 mps 756 mmHg 36%
    09:00 +24°C° 0 mm 1 mps 756 mmHg 31%
    10:00 +26°C° 0 mm 2 mps 756 mmHg 26%
    11:00 +28°C° 0 mm 2 mps 756 mmHg 20%
    12:00 +29°C° 0 mm 2 mps 755 mmHg 18%
    13:00 +30°C° 0 mm 3 mps 754 mmHg 16%
    14:00 +31°C° 0 mm 3 mps 754 mmHg 14%
    15:00 +29°C° 0 mm 3 mps 754 mmHg 16%
    16:00 +28°C° 0 mm 2 mps 753 mmHg 18%
    17:00 +26°C° 0 mm 2 mps 753 mmHg 19%
    18:00 +25°C° 0 mm 2 mps 754 mmHg 23%
    19:00 +24°C° 0 mm 3 mps 754 mmHg 27%
    20:00 +22°C° 0 mm 3 mps 755 mmHg 30%
    21:00 +23°C° 0 mm 2 mps 755 mmHg 35%
    22:00 +21°C° 0 mm 2 mps 755 mmHg 39%
    23:00 +20°C° 0 mm 2 mps 755 mmHg 44%

    19 December, Tuesday

    Time Temperature Precipitation Wind Pressure Humidity
    00:00 +20°C° 0 mm 1 mps 755 mmHg 46%
    01:00 +19°C° 0 mm 1 mps 754 mmHg 49%
    02:00 +19°C° 0 mm 1 mps 754 mmHg 51%
    03:00 +18°C° 0 mm 1 mps 754 mmHg 51%
    04:00 +18°C° 0 mm 1 mps 754 mmHg 52%
    05:00 +15°C° 0 mm 0 mps 754 mmHg 53%
    06:00 +19°C° 0 mm 1 mps 754 mmHg 47%
    07:00 +20°C° 0 mm 1 mps 755 mmHg 41%
    08:00 +22°C° 0 mm 1 mps 755 mmHg 35%
    09:00 +24°C° 0 mm 1 mps 755 mmHg 30%
    10:00 +26°C° 0 mm 2 mps 755 mmHg 24%
    11:00 +29°C° 0 mm 2 mps 755 mmHg 19%
    12:00 +30°C° 0 mm 2 mps 754 mmHg 16%
    13:00 +31°C° 0 mm 2 mps 754 mmHg 14%
    14:00 +32°C° 0 mm 2 mps 753 mmHg 12%
    15:00 +30°C° 0 mm 2 mps 753 mmHg 14%
    16:00 +28°C° 0 mm 1 mps 753 mmHg 16%
    17:00 +26°C° 0 mm 1 mps 753 mmHg 18%
    18:00 +25°C° 0 mm 1 mps 753 mmHg 20%
    19:00 +25°C° 0 mm 2 mps 754 mmHg 23%
    20:00 +24°C° 0 mm 2 mps 754 mmHg 26%
    21:00 +23°C° 0 mm 2 mps 754 mmHg 30%
    22:00 +21°C° 0 mm 2 mps 754 mmHg 34%
    23:00 +22°C° 0 mm 1 mps 754 mmHg 39%

    20 December, Wednesday

    Time Temperature Precipitation Wind Pressure Humidity
    00:00 +21°C° 0 mm 1 mps 754 mmHg 42%
    01:00 +20°C° 0 mm 1 mps 754 mmHg 45%
    02:00 +19°C° 0 mm 1 mps 753 mmHg 48%
    03:00 +19°C° 0 mm 1 mps 753 mmHg 50%
    04:00 +19°C° 0 mm 1 mps 753 mmHg 51%
    05:00 +18°C° 0 mm 1 mps 753 mmHg 53%
    06:00 +20°C° 0 mm 1 mps 754 mmHg 48%
    07:00 +21°C° 0 mm 1 mps 754 mmHg 43%
    08:00 +23°C° 0 mm 1 mps 755 mmHg 37%
    09:00 +25°C° 0 mm 1 mps 755 mmHg 32%
    10:00 +27°C° 0 mm 1 mps 755 mmHg 26%
    11:00 +29°C° 0 mm 1 mps 754 mmHg 21%
    12:00 +30°C° 0 mm 1 mps 754 mmHg 19%
    13:00 +31°C° 0 mm 1 mps 753 mmHg 17%
    14:00 +32°C° 0 mm 1 mps 753 mmHg 14%
    15:00 +30°C° 0 mm 1 mps 753 mmHg 16%
    16:00 +28°C° 0 mm 1 mps 753 mmHg 18%
    17:00 +27°C° 0 mm 1 mps 753 mmHg 20%
    18:00 +26°C° 0 mm 1 mps 753 mmHg 21%
    19:00 +25°C° 0 mm 1 mps 754 mmHg 23%
    20:00 +24°C° 0 mm 1 mps 754 mmHg 24%
    21:00 +23°C° 0 mm 1 mps 754 mmHg 26%
    22:00 +23°C° 0 mm 1 mps 754 mmHg 28%
    23:00 +22°C° 0 mm 1 mps 755 mmHg 30%

    21 December, Thursday

    Time Temperature Precipitation Wind Pressure Humidity
    00:00 +22°C° 0 mm 1 mps 754 mmHg 33%
    01:00 +21°C° 0 mm 1 mps 754 mmHg 35%
    02:00 +20°C° 0 mm 1 mps 754 mmHg 37%
    03:00 +20°C° 0 mm 1 mps 754 mmHg 38%
    04:00 +20°C° 0 mm 1 mps 754 mmHg 39%
    05:00 +19°C° 0 mm 1 mps 755 mmHg 40%
    06:00 +20°C° 0 mm 1 mps 755 mmHg 37%
    07:00 +21°C° 0 mm 1 mps 755 mmHg 35%
    08:00 +23°C° 0 mm 1 mps 756 mmHg 32%
    09:00 +24°C° 0 mm 2 mps 756 mmHg 29%
    10:00 +26°C° 0 mm 2 mps 755 mmHg 27%
    11:00 +28°C° 0 mm 2 mps 755 mmHg 24%
    12:00 +29°C° 0 mm 3 mps 755 mmHg 22%
    13:00 +29°C° 0 mm 4 mps 754 mmHg 21%
    14:00 +30°C° 0 mm 4 mps 753 mmHg 19%
    15:00 +29°C° 0 mm 4 mps 754 mmHg 22%
    16:00 +28°C° 0 mm 4 mps 754 mmHg 24%
    17:00 +27°C° 0 mm 5 mps 754 mmHg 26%
    18:00 +25°C° 0 mm 5 mps 754 mmHg 32%
    19:00 +23°C° 0 mm 5 mps 755 mmHg 37%
    20:00 +22°C° 0 mm 6 mps 755 mmHg 42%
    21:00 +21°C° 0 mm 6 mps 755 mmHg 44%
    22:00 +20°C° 0 mm 6 mps 756 mmHg 45%
    23:00 +19°C° 0 mm 6 mps 756 mmHg 47%
    Show more